Location: Buisson
(44.2787°N, 4.9969°E)
Time: 02:00:05
(UTC+00:00)

CZ-4C R/B - Pass Details

Date: 18 April 2021
Orbit: 463 x 634 km, 98.0° (Epoch: 14 May)

Event Time Altitude Azimuth Distance (km) Brightness Sun altitude
Exits shadow 02:37:37 61° 259° (WSW) 709 3.5 -21.7°
Maximum altitude 02:37:37 61° 259° (W) 709 3.5 -21.7°
Drops below altitude 10° 02:42:00 10° 340° (NNW) 2,021 6.4 -21.1°
Sets 02:44:16 0° 344° (NNW) 2,940 7.4 -20.8°
